EW6519 Weather Reports


Display with metric or nautical units.
time (UTC)temp
F
wind
direction
speed
MPH
gust
MPH
rain 1hr
in
rain 24hr
in
rain mn
in
humidity
%
barometer
mb
20260831191506 94 212 1.0 5.0 0.00 0.00 0.00 51 1016.3
20260831190005 93 282 1.0 5.0 0.00 0.00 0.00 51 1016.4
20260831184505 92 167 0.0 0.0 0.00 0.00 0.00 56 1016.7
20260831183002 93 221 1.0 9.0 0.00 0.00 0.00 54 1016.7
20260831181501 92 53 0.0 0.0 0.00 0.00 0.00 57 1016.7
20260831180059 92 244 0.0 0.0 0.00 0.00 0.00 56 1016.9
20260831174559 92 262 0.0 7.0 0.00 0.00 0.00 58 1017.0
20260831173058 92 235 1.0 10.0 0.00 0.00 0.00 57 1017.1
20260831171600 91 278 0.0 6.0 0.00 0.00 0.00 59 1017.0
20260831170056 91 230 0.0 7.0 0.00 0.00 0.00 59 1017.2
20260831164556 92 288 0.0 5.0 0.00 0.00 0.00 59 1017.2
20260831163053 91 59 0.0 12.0 0.00 0.00 0.00 61 1017.3
20260831161552 90 290 0.0 5.0 0.00 0.00 0.00 63 1017.4
20260831160047 89 119 0.0 3.0 0.00 0.00 0.00 64 1017.4
20260831155339 90 43 0.0 4.0 0.00 0.00 0.00 65 1019.3
20260831154507 87 245 1.0 10.0 0.00 0.00 0.00 66 1017.4
20260831153006 89 250 1.0 7.0 0.00 0.00 0.00 63 1017.4
20260831151605 88 316 1.0 6.0 0.00 0.00 0.00 65 1017.4
20260831150057 86 198 0.0 7.0 0.00 0.00 0.00 69 1017.3
20260831144631 85 128 0.0 0.0 0.00 0.00 0.00 69 1017.3
20260831143050 83 162 0.0 5.0 0.00 0.00 0.00 71 1017.3
20260831141546 83 206 0.0 3.0 0.00 0.00 0.00 72 1017.2
20260831140044 82 219 0.0 9.0 0.00 0.00 0.00 73 1017.3
20260831134545 81 197 0.0 4.0 0.00 0.00 0.00 74 1017.2
20260831133039 80 217 0.0 0.0 0.00 0.00 0.00 78 1017.2
20260831131534 79 248 0.0 0.0 0.00 0.00 0.00 80 1017.1
20260831130032 78 152 0.0 0.0 0.00 0.00 0.00 81 1017.1
20260831124536 78 153 0.0 0.0 0.00 0.00 0.00 82 1017.0
20260831123033 76 163 0.0 0.0 0.00 0.00 0.00 85 1017.0
20260831121540 74 226 0.0 0.0 0.00 0.00 0.00 86 1016.9
20260831120035 74 210 0.0 0.0 0.00 0.00 0.00 87 1016.9
20260831114544 73 210 0.0 0.0 0.00 0.00 0.00 86 1016.8
20260831113024 73 210 0.0 0.0 0.00 0.00 0.00 86 1016.6
20260831111522 73 210 0.0 0.0 0.00 0.00 0.00 85 1016.5
20260831110023 74 210 0.0 0.0 0.00 0.00 0.00 85 1016.4
20260831104531 74 210 0.0 0.0 0.00 0.00 0.00 84 1016.3
20260831103018 74 210 0.0 0.0 0.00 0.00 0.00 84 1016.2
20260831101516 74 210 0.0 0.0 0.00 0.00 0.00 83 1016.1
20260831100014 74 210 0.0 0.0 0.00 0.00 0.00 83 1016.0
20260831094514 75 210 0.0 0.0 0.00 0.00 0.00 81 1015.8
20260831093019 75 210 0.0 0.0 0.00 0.00 0.00 81 1016.0
20260831091512 75 210 0.0 0.0 0.00 0.00 0.00 80 1015.9
20260831090012 75 210 0.0 0.0 0.00 0.00 0.00 80 1015.9
20260831084511 75 210 0.0 0.0 0.00 0.00 0.00 79 1015.6
20260831083009 75 186 0.0 0.0 0.00 0.00 0.00 79 1015.5
20260831081509 75 214 0.0 3.0 0.00 0.00 0.00 79 1015.4
20260831080008 75 142 0.0 0.0 0.00 0.00 0.00 79 1015.3
20260831074507 75 156 0.0 0.0 0.00 0.00 0.00 79 1015.3
20260831073006 75 155 0.0 0.0 0.00 0.00 0.00 80 1015.4
20260831071505 75 170 0.0 0.0 0.00 0.00 0.00 79 1015.6
20260831070059 75 170 0.0 0.0 0.00 0.00 0.00 78 1015.8
20260831064557 76 170 0.0 0.0 0.00 0.00 0.00 77 1016.0
20260831063058 76 170 0.0 0.0 0.00 0.00 0.00 78 1016.2
20260831061553 76 170 0.0 0.0 0.00 0.00 0.00 77 1016.2
20260831060101 76 170 0.0 0.0 0.00 0.00 0.00 76 1016.3
20260831054551 77 169 0.0 0.0 0.00 0.00 0.00 75 1016.4
20260831053057 77 172 0.0 0.0 0.00 0.00 0.00 75 1016.3
20260831051550 77 146 0.0 2.0 0.00 0.00 0.00 75 1016.2
20260831050105 77 159 0.0 0.0 0.00 0.00 0.00 75 1016.2
20260831044549 77 160 0.0 0.0 0.00 0.00 0.00 74 1016.2
20260831043051 77 149 0.0 0.0 0.00 0.00 0.00 74 1016.2
20260831041553 77 167 0.0 0.0 0.00 0.00 0.00 73 1016.3
20260831040041 78 167 0.0 0.0 0.00 0.00 0.00 72 1016.4
20260831034542 78 167 0.0 0.0 0.00 0.00 0.00 72 1016.4
20260831033046 79 167 0.0 0.0 0.00 0.00 0.00 71 1016.4
20260831031547 79 167 0.0 0.0 0.00 0.00 0.00 70 1016.3
20260831030038 79 181 0.0 0.0 0.00 0.00 0.00 69 1016.3
20260831024537 80 156 0.0 0.0 0.00 0.00 0.00 69 1016.5
20260831023036 80 156 0.0 0.0 0.00 0.00 0.00 68 1016.4
20260831021536 80 156 0.0 0.0 0.00 0.00 0.00 66 1016.3
20260831020036 81 156 0.0 0.0 0.00 0.00 0.00 66 1016.3
20260831014539 81 156 0.0 0.0 0.00 0.00 0.00 66 1016.3
20260831013049 81 156 0.0 0.0 0.00 0.00 0.00 65 1016.2
20260831011533 82 156 0.0 0.0 0.00 0.00 0.00 64 1016.0
20260831010033 82 156 0.0 0.0 0.00 0.00 0.00 62 1015.8
20260831004533 83 156 0.0 0.0 0.00 0.00 0.00 62 1015.8
20260831003032 83 156 0.0 0.0 0.00 0.00 0.00 61 1015.6
20260831001535 84 156 0.0 0.0 0.00 0.00 0.00 59 1015.5
20260831000031 85 156 0.0 0.0 0.00 0.00 0.00 57 1015.6
20260830234531 86 238 0.0 0.0 0.00 0.00 0.00 55 1015.5
20260830233029 86 153 0.0 3.0 0.00 0.00 0.00 54 1015.3
20260830231529 87 149 1.0 5.0 0.00 0.00 0.00 53 1015.1
20260830230029 88 155 0.0 6.0 0.00 0.00 0.00 53 1015.0
20260830224527 88 240 0.0 0.0 0.00 0.00 0.00 52 1015.2
20260830223027 89 196 1.0 6.0 0.00 0.00 0.00 50 1014.9
20260830221525 90 172 1.0 9.0 0.00 0.00 0.00 48 1014.9
20260830220023 91 230 0.0 0.0 0.00 0.00 0.00 47 1015.1
20260830214522 92 255 0.0 0.0 0.00 0.00 0.00 47 1015.2
20260830213019 91 119 2.0 11.0 0.00 0.00 0.00 47 1015.3
20260830211519 92 188 0.0 4.0 0.00 0.00 0.00 45 1015.4
20260830210016 93 281 0.0 6.0 0.00 0.00 0.00 43 1015.7
20260830204516 94 214 0.0 5.0 0.00 0.00 0.00 44 1015.7
20260830203021 92 250 0.0 0.0 0.00 0.00 0.00 45 1015.9
20260830201508 91 239 0.0 8.0 0.00 0.00 0.00 45 1016.1
20260830200006 90 197 0.0 5.0 0.00 0.00 0.00 47 1016.3
20260830194505 89 212 0.0 3.0 0.00 0.00 0.00 49 1016.6
20260830193003 90 314 0.0 2.0 0.00 0.00 0.00 47 1016.8
20260830191603 90 5 0.0 3.0 0.00 0.00 0.00 47 1017.1